Regional Weather Roundup
Issued by NWS

Home | Current Version | Previous Version | Graphics & Text | Print | Product List | Glossary On
Versions: 1 2 3 4 5 6 7 8 9 10 11 12 13 14 15 16 17 18 19 20 21 22 23 24 25 26 27 28 29 30 31 32 33 34 35 36 37 38 39 40 41 42 43 44 45 46 47 48 49 50
262
ASUS43 KLSX 092210
RWRMO

WEATHER SUMMARY FOR MISSOURI
NATIONAL WEATHER SERVICE SPRINGFIELD MO
400 PM CST FRI DEC 09 2016

NOTE: "FAIR" INDICATES FEW OR NO CLOUDS BELOW 12,000 FEET WITH NO
       SIGNIFICANT WEATHER AND/OR OBSTRUCTIONS TO VISIBILITY.
       CURRENT SKY AND/OR WEATHER CONDITIONS ARE NOT AVAILABLE FOR
       CHILLICOTHE AND FARMINGTON.

MOZ001>031-035>038-043-044-053-054-092300-
...NORTHERN AND WESTERN MISSOURI...

CITY           SKY/WX    TMP DP  RH WIND       PRES   REMARKS
KANSAS CTY INT CLOUDY    27   8  44 SE5       30.53R WCI  22
KANSAS C DTWN  CLOUDY    29  10  45 VRB5      30.55R WCI  24
LEE`S SUMMIT   CLOUDY    27  10  49 SE5       30.54R WCI  22
ST JOSEPH      CLOUDY    26   9  48 SE3       30.56R
CHILLICOTHE      N/A     26   8  46 CALM      30.58R
KIRKSVILLE     CLOUDY    25   6  44 W5        30.56R WCI  19

$$
MOZ066>068-077>081-088>096-101>105-092300-
...SOUTHWEST MISSOURI...

CITY           SKY/WX    TMP DP  RH WIND       PRES   REMARKS
SPRINGFIELD    MOCLDY    31   8  38 S3        30.50F
JOPLIN         CLOUDY    32  12  43 SE7       30.52F WCI  26
BRANSON        MOCLDY    32   9  37 SE6       30.52F WCI  26

$$
MOZ032>034-039>042-045>050-055>058-069>072-092300-
...CENTRAL MISSOURI...

CITY           SKY/WX    TMP DP  RH WIND       PRES   REMARKS
COLUMBIA       CLEAR     28   8  43 N6        30.56S WCI  22
JEFFERSON CITY CLEAR     28   9  44 CALM      30.58S
ROLLA          CLEAR     29   7  39 CALM      30.53S
SEDALIA        CLEAR     28   6  39 CALM      30.56S
WHITEMAN AFB   MOCLDY    28   7  41 SE5       30.54S WCI  23
WARRENSBURG    CLOUDY    28  10  47 CALM      30.55S
OSAGE BEACH    CLEAR     30  10  43 CALM      30.55F

$$
MOZ051-052-059>065-092300-
...EAST CENTRAL MISSOURI...

CITY           SKY/WX    TMP DP  RH WIND       PRES   REMARKS
ST LOUIS INTL  CLOUDY    30  12  47 NW6       30.58S WCI  24
SPIRIT OF STL  PTCLDY    30  10  43 N6        30.58S WCI  24
ST CHARLES     CLOUDY    27  14  58 W6        30.58F WCI  20

$$
MOZ072>076-082>087-097>100-106>115-092300-
...SOUTH CENTRAL AND SOUTHEAST MISSOURI...

CITY           SKY/WX    TMP DP  RH WIND       PRES   REMARKS
CAPE GIRARDEAU CLEAR     31  15  52 SW3       30.59F
FARMINGTON     CLEAR     30  11  45 CALM      30.55F
POPLAR BLUFF   CLEAR     32  17  54 SE3       30.58F
WEST PLAINS    CLEAR     33  11  39 S5        30.53F WCI  29

$$




USA.gov is the U.S. government's official web portal to all federal, state and local government web resources and services.